This is the latest recevied weather packets stored in our database for station/object SQ9PDE-13. If no packets are shown the sender has not sent any weather packets the latest 10 day(s).
| Time | Temp. | Humidity | Pressure | Rain* | Wind** | Luminosity | Snow |
|---|---|---|---|---|---|---|---|
| 1777748899 | 15° C | 49% | 1020.4 hPa | - | - | - | - |
| 1777748599 | 15° C | 49% | 1020.4 hPa | - | - | - | - |
| 1777748298 | 15.56° C | 48% | 1020.2 hPa | - | - | - | - |
| 1777747998 | 15.56° C | 47% | 1020.2 hPa | - | - | - | - |
| 1777747697 | 15.56° C | 46% | 1020.1 hPa | - | - | - | - |
| 1777747397 | 16.11° C | 46% | 1020.1 hPa | - | - | - | - |
| 1777747096 | 16.11° C | 46% | 1020 hPa | - | - | - | - |
| 1777746796 | 16.11° C | 45% | 1020 hPa | - | - | - | - |
| 1777746495 | 16.67° C | 45% | 1019.9 hPa | - | - | - | - |
| 1777746195 | 16.67° C | 44% | 1019.9 hPa | - | - | - | - |
| 1777745894 | 16.67° C | 45% | 1020 hPa | - | - | - | - |
| 1777745594 | 16.67° C | 45% | 1020 hPa | - | - | - | - |
| 1777745293 | 17.22° C | 44% | 1019.8 hPa | - | - | - | - |
| 1777744993 | 17.22° C | 44% | 1019.7 hPa | - | - | - | - |
| 1777744692 | 17.78° C | 43% | 1019.6 hPa | - | - | - | - |
| 1777744392 | 17.78° C | 43% | 1019.6 hPa | - | - | - | - |
| 1777744091 | 17.78° C | 43% | 1019.6 hPa | - | - | - | - |
| 1777743791 | 18.33° C | 43% | 1019.5 hPa | - | - | - | - |
| 1777743490 | 18.33° C | 43% | 1019.5 hPa | - | - | - | - |
| 1777743189 | 18.89° C | 43% | 1019.5 hPa | - | - | - | - |
| 1777742889 | 18.89° C | 43% | 1019.5 hPa | - | - | - | - |
| 1777742588 | 18.89° C | 43% | 1019.4 hPa | - | - | - | - |
| 1777742288 | 18.89° C | 42% | 1019.4 hPa | - | - | - | - |
| 1777741988 | 18.89° C | 42% | 1019.4 hPa | - | - | - | - |
| 1777741687 | 19.44° C | 41% | 1019.4 hPa | - | - | - | - |
* Rain since midnight (hover to see other rain measurements)
** Current wind speed in m/s (hover to see current wind gust speed)